SCP
0 0 0 -0 -0 -0 -1 -0 1 1 1 1 0 0 0 0 0 0 -0 0 0 0 0 0 0 0 0 0 0 0 0 0 0
0 0 0 -0 -0 -0 -0 0 0 1 1 1 0 0 0 0 0 0 0 0 0 0 0 0 0 0 0 0 0 0 0 0 0
0 0 0 0 0 -0 -0 -0 1 0 1 1 1 1 0 0 0 0 0 0 0 0 0 0 0 0 0 0 0 0 0 0 0
0 -0 0 0 0 0 -0 0 0 1 1 1 1 1 1 0 0 0 0 0 0 0 0 0 0 0 0 0 0 0 0 0 0
0 0 0 0 1 1 1 1 1 1 2 2 1 2 1 0 0 0 0 0 0 0 0 0 0 0 0 0 0 0 0 0 0
0 0 0 0 1 1 2 3 3 3 2 2 1 1 1 0 0 0 0 0 0 0 0 0 0 0 0 0 0 0 0 0 0
0 0 0 0 2 4 3 2 2 2 1 1 1 1 1 0 0 0 0 0 0 0 0 0 0 0 0 0 0 0 0 0 0
0 0 1 1 2 5 5 3 2 1 1 1 0 1 0 0 0 0 0 0 0 0 0 0 0 0 0 0 1 1 0 0 0
0 0 0 2 3 4 5 4 2 1 0 0 0 0 0 1 1 1 1 0 0 0 0 0 1 0 0 1 1 0 0 0 0
0 0 0 0 1 2 5 4 2 0 1 1 0 0 1 1 1 1 0 0 0 1 1 1 0 0 1 1 1 0 0 0 0
0 0 0 0 0 2 3 2 1 1 1 0 1 1 1 1 1 1 1 1 1 1 1 1 1 1 0 1 1 1 0 0 0
0 0 0 0 0 3 3 1 1 2 1 1 1 1 0 1 1 1 1 2 2 2 3 2 2 1 1 1 1 0 0 0 0
0 0 0 0 1 3 2 2 1 2 1 1 1 1 1 1 1 1 2 3 3 3 3 2 1 0 1 1 0 0 0 0 0
0 0 0 1 1 2 2 2 2 1 1 1 1 1 1 1 1 2 3 3 4 3 3 0 0 0 1 1 0 0 0 0 0
0 0 1 1 2 2 4 3 3 2 1 1 0 1 2 3 3 3 4 3 3 3 2 1 0 1 0 0 0 0 0 0 0
0 0 1 3 5 4 5 5 3 2 0 0 0 1 4 4 3 3 2 3 2 2 0 1 0 0 0 0 0 0 0 0 0
0 1 2 6 5 1 0 0 0 0 0 0 0 0 0 0 1 2 2 0 0 0 0 0 0 0 0 0 0 0 0 0 0
2 4 4 3 1 0 1 1 0 0 0 0 0 0 1 1 2 1 0 0 0 0 0 0 0 0 0 0 0 0 0 0 0
3 1 1 1 1 2 2 0 0 0 0 0 0 1 0 2 2 0 0 0 0 0 0 0 0 0 0 0 0 0 0 0 0
2 2 3 3 2 1 1 0 0 0 0 -0 1 1 1 0 0 0 0 0 0 0 0 0 0 0 0 0 0 0 0 0 0
Wind_Speed_500mb
68 82 93 98 90 90 86 79 70 67 61 51 43 33 24 14 9 15 14 14 18 15 15 17 20 21 22 20 15 15 20 24 18
59 67 83 99 98 98 93 87 79 73 66 55 45 37 34 19 11 16 24 22 22 23 21 15 17 21 26 24 15 14 12 20 25
69 85 76 90 99 98 98 92 83 76 69 58 47 42 37 22 12 8 10 15 10 9 10 15 16 15 17 18 21 17 21 27 30
55 91 78 88 95 100 102 95 89 80 72 63 53 47 37 27 24 23 20 11 8 6 9 15 20 23 23 24 26 28 27 34 32
32 30 81 89 94 101 100 98 90 84 76 69 61 52 42 36 36 31 25 20 15 14 15 15 17 17 19 27 32 33 31 32 31
41 36 38 71 87 100 102 100 93 87 79 74 63 57 50 42 38 28 30 29 22 17 14 13 13 17 25 30 28 22 22 26 33
31 36 37 55 88 96 101 101 95 89 80 76 66 60 51 43 36 28 23 20 17 14 12 14 15 19 23 23 24 29 31 33 36
16 31 47 62 84 88 94 97 96 90 83 78 66 58 49 44 40 30 25 21 18 14 14 15 19 27 28 26 24 30 33 34 36
16 10 22 48 75 82 90 99 102 98 93 82 68 58 51 46 40 37 33 26 21 20 20 24 27 34 34 31 29 36 36 38 37
5 12 11 12 12 73 82 96 100 100 91 73 67 61 54 53 47 42 36 30 28 27 31 32 33 32 34 35 37 37 36 33 37
16 15 16 16 23 22 61 83 93 94 85 81 70 69 57 52 47 45 38 36 37 36 36 36 31 32 35 40 37 38 37 37 43
28 19 7 8 13 17 43 67 82 90 84 77 76 63 56 55 48 44 42 47 41 39 42 42 44 42 44 41 38 39 40 35 42
20 15 11 5 10 19 42 63 78 84 80 74 70 60 55 48 48 49 51 47 45 48 47 49 44 46 49 39 37 36 36 32 38
16 16 17 13 15 19 43 66 71 70 59 68 64 52 41 41 48 49 48 44 48 50 48 47 37 43 39 43 41 39 33 39 47
22 25 27 28 28 35 39 66 72 66 61 56 37 45 45 49 50 42 43 46 46 45 35 33 39 45 35 23 35 36 38 41 39
35 27 39 39 37 36 53 63 66 63 31 61 53 35 51 45 36 40 40 47 46 35 27 32 37 39 28 31 31 27 31 28 21
33 28 41 42 55 59 57 44 47 43 43 17 12 17 15 52 31 23 28 33 26 28 36 29 44 34 28 22 27 27 16 19 23
16 29 47 50 53 55 50 45 45 42 26 20 18 4 22 39 47 49 39 39 32 31 29 33 28 28 27 27 23 20 23 25 19
19 25 32 41 49 48 51 39 18 5 9 10 33 29 24 41 29 20 24 25 24 22 17 21 27 27 25 26 24 24 23 20 17
12 15 18 21 22 19 20 22 14 22 11 13 42 29 33 30 21 26 27 27 22 20 16 16 19 18 17 16 12 11 13 19 9
Wind_Direction_500mb
196 184 184 190 191 191 195 195 197 203 204 206 209 209 208 208 238 198 184 208 235 254 277 252 274 292 312 329 353 357 335 335 333
202 193 189 190 194 194 195 194 200 206 203 208 209 205 214 222 213 183 214 224 238 252 256 269 270 280 289 296 312 315 312 305 299
209 207 196 188 193 196 197 197 202 206 208 209 210 204 218 231 239 256 223 222 218 229 248 261 279 299 299 288 298 306 292 285 285
200 208 197 189 193 198 199 198 201 206 208 207 212 209 214 224 213 238 250 238 247 272 286 279 281 287 293 299 301 304 297 293 292
153 172 201 197 189 196 199 197 202 207 208 208 214 212 207 218 222 236 235 242 249 255 271 282 288 292 297 302 303 302 295 298 294
165 179 185 203 191 196 201 197 204 206 209 209 212 206 205 215 227 229 223 229 234 245 268 295 303 316 316 314 315 307 311 308 298
177 192 206 200 190 197 202 200 203 207 208 211 211 208 206 213 225 236 234 229 230 248 273 292 303 302 307 310 313 315 316 306 297
171 202 203 202 195 197 202 201 202 208 210 209 206 204 208 215 225 237 246 241 236 227 246 275 280 287 290 292 305 302 298 301 305
186 221 237 222 212 202 203 204 206 206 206 201 201 203 208 213 226 237 240 236 235 232 253 268 271 285 283 283 292 296 291 292 302
144 246 272 278 259 224 210 207 209 208 196 194 199 198 204 215 228 235 236 237 238 236 247 256 274 284 285 288 294 292 295 288 299
199 222 225 256 274 283 224 213 207 206 194 201 198 193 205 221 232 235 238 239 239 237 248 259 279 286 301 295 299 290 289 293 307
177 154 214 253 274 288 215 214 210 200 197 200 201 208 217 224 229 232 233 236 237 245 249 261 268 284 288 294 292 286 287 304 309
124 161 194 285 292 264 213 212 204 200 201 203 206 213 219 230 233 236 235 238 237 241 249 264 263 287 293 282 288 288 283 294 306
203 211 207 208 197 215 211 203 198 200 203 201 211 219 221 232 234 238 239 240 240 242 252 252 276 284 291 293 295 293 285 298 298
358 217 209 211 207 206 208 202 197 196 206 209 219 219 230 238 232 234 237 241 251 244 244 263 310 287 293 292 293 283 284 297 296
306 262 206 199 197 201 186 189 193 190 181 203 204 246 229 223 214 229 233 248 252 242 272 298 292 293 296 282 274 288 302 300 298
281 245 204 189 188 184 179 168 166 172 184 323 242 38 288 357 308 261 235 236 246 259 282 306 296 287 264 262 284 293 283 293 310
230 199 186 186 179 173 173 174 179 183 253 209 46 143 277 279 252 256 258 268 272 272 272 275 268 269 277 282 282 274 284 303 313
132 148 172 174 171 185 173 170 188 244 36 181 258 250 248 237 254 246 259 264 253 247 255 249 259 273 286 289 286 288 286 298 315
212 182 168 159 170 182 193 215 165 149 276 196 196 214 223 230 228 232 244 245 251 277 268 262 272 286 297 302 298 289 314 321 294
Wind_Speed_850mb
68 82 93 98 90 90 86 79 70 67 61 51 43 33 24 14 9 15 14 14 18 15 15 17 20 21 22 20 15 15 20 24 18
59 67 83 99 98 98 93 87 79 73 66 55 45 37 34 19 11 16 24 22 22 23 21 15 17 21 26 24 15 14 12 20 25
69 85 76 90 99 98 98 92 83 76 69 58 47 42 37 22 12 8 10 15 10 9 10 15 16 15 17 18 21 17 21 27 30
55 91 78 88 95 100 102 95 89 80 72 63 53 47 37 27 24 23 20 11 8 6 9 15 20 23 23 24 26 28 27 34 32
32 30 81 89 94 101 100 98 90 84 76 69 61 52 42 36 36 31 25 20 15 14 15 15 17 17 19 27 32 33 31 32 31
41 36 38 71 87 100 102 100 93 87 79 74 63 57 50 42 38 28 30 29 22 17 14 13 13 17 25 30 28 22 22 26 33
31 36 37 55 88 96 101 101 95 89 80 76 66 60 51 43 36 28 23 20 17 14 12 14 15 19 23 23 24 29 31 33 36
16 31 47 62 84 88 94 97 96 90 83 78 66 58 49 44 40 30 25 21 18 14 14 15 19 27 28 26 24 30 33 34 36
16 10 22 48 75 82 90 99 102 98 93 82 68 58 51 46 40 37 33 26 21 20 20 24 27 34 34 31 29 36 36 38 37
5 12 11 12 12 73 82 96 100 100 91 73 67 61 54 53 47 42 36 30 28 27 31 32 33 32 34 35 37 37 36 33 37
16 15 16 16 23 22 61 83 93 94 85 81 70 69 57 52 47 45 38 36 37 36 36 36 31 32 35 40 37 38 37 37 43
28 19 7 8 13 17 43 67 82 90 84 77 76 63 56 55 48 44 42 47 41 39 42 42 44 42 44 41 38 39 40 35 42
20 15 11 5 10 19 42 63 78 84 80 74 70 60 55 48 48 49 51 47 45 48 47 49 44 46 49 39 37 36 36 32 38
16 16 17 13 15 19 43 66 71 70 59 68 64 52 41 41 48 49 48 44 48 50 48 47 37 43 39 43 41 39 33 39 47
22 25 27 28 28 35 39 66 72 66 61 56 37 45 45 49 50 42 43 46 46 45 35 33 39 45 35 23 35 36 38 41 39
35 27 39 39 37 36 53 63 66 63 31 61 53 35 51 45 36 40 40 47 46 35 27 32 37 39 28 31 31 27 31 28 21
33 28 41 42 55 59 57 44 47 43 43 17 12 17 15 52 31 23 28 33 26 28 36 29 44 34 28 22 27 27 16 19 23
16 29 47 50 53 55 50 45 45 42 26 20 18 4 22 39 47 49 39 39 32 31 29 33 28 28 27 27 23 20 23 25 19
19 25 32 41 49 48 51 39 18 5 9 10 33 29 24 41 29 20 24 25 24 22 17 21 27 27 25 26 24 24 23 20 17
12 15 18 21 22 19 20 22 14 22 11 13 42 29 33 30 21 26 27 27 22 20 16 16 19 18 17 16 12 11 13 19 9
Wind_Direction_850mb
196 184 184 190 191 191 195 195 197 203 204 206 209 209 208 208 238 198 184 208 235 254 277 252 274 292 312 329 353 357 335 335 333
202 193 189 190 194 194 195 194 200 206 203 208 209 205 214 222 213 183 214 224 238 252 256 269 270 280 289 296 312 315 312 305 299
209 207 196 188 193 196 197 197 202 206 208 209 210 204 218 231 239 256 223 222 218 229 248 261 279 299 299 288 298 306 292 285 285
200 208 197 189 193 198 199 198 201 206 208 207 212 209 214 224 213 238 250 238 247 272 286 279 281 287 293 299 301 304 297 293 292
153 172 201 197 189 196 199 197 202 207 208 208 214 212 207 218 222 236 235 242 249 255 271 282 288 292 297 302 303 302 295 298 294
165 179 185 203 191 196 201 197 204 206 209 209 212 206 205 215 227 229 223 229 234 245 268 295 303 316 316 314 315 307 311 308 298
177 192 206 200 190 197 202 200 203 207 208 211 211 208 206 213 225 236 234 229 230 248 273 292 303 302 307 310 313 315 316 306 297
171 202 203 202 195 197 202 201 202 208 210 209 206 204 208 215 225 237 246 241 236 227 246 275 280 287 290 292 305 302 298 301 305
186 221 237 222 212 202 203 204 206 206 206 201 201 203 208 213 226 237 240 236 235 232 253 268 271 285 283 283 292 296 291 292 302
144 246 272 278 259 224 210 207 209 208 196 194 199 198 204 215 228 235 236 237 238 236 247 256 274 284 285 288 294 292 295 288 299
199 222 225 256 274 283 224 213 207 206 194 201 198 193 205 221 232 235 238 239 239 237 248 259 279 286 301 295 299 290 289 293 307
177 154 214 253 274 288 215 214 210 200 197 200 201 208 217 224 229 232 233 236 237 245 249 261 268 284 288 294 292 286 287 304 309
124 161 194 285 292 264 213 212 204 200 201 203 206 213 219 230 233 236 235 238 237 241 249 264 263 287 293 282 288 288 283 294 306
203 211 207 208 197 215 211 203 198 200 203 201 211 219 221 232 234 238 239 240 240 242 252 252 276 284 291 293 295 293 285 298 298
358 217 209 211 207 206 208 202 197 196 206 209 219 219 230 238 232 234 237 241 251 244 244 263 310 287 293 292 293 283 284 297 296
306 262 206 199 197 201 186 189 193 190 181 203 204 246 229 223 214 229 233 248 252 242 272 298 292 293 296 282 274 288 302 300 298
281 245 204 189 188 184 179 168 166 172 184 323 242 38 288 357 308 261 235 236 246 259 282 306 296 287 264 262 284 293 283 293 310
230 199 186 186 179 173 173 174 179 183 253 209 46 143 277 279 252 256 258 268 272 272 272 275 268 269 277 282 282 274 284 303 313
132 148 172 174 171 185 173 170 188 244 36 181 258 250 248 237 254 246 259 264 253 247 255 249 259 273 286 289 286 288 286 298 315
212 182 168 159 170 182 193 215 165 149 276 196 196 214 223 230 228 232 244 245 251 277 268 262 272 286 297 302 298 289 314 321 294